This is the latest recevied weather packets stored in our database for station/object KD0ISH. If no packets are shown the sender has not sent any weather packets the latest 10 day(s).
| Time | Temp. | Humidity | Pressure | Rain* | Wind** | Luminosity | Snow |
|---|---|---|---|---|---|---|---|
| 1777673159 | 18.33° C | 38% | 1017.7 hPa | 0 mm | - | 375 W/m² | - |
| 1777672856 | 19.44° C | 36% | 1017.5 hPa | 0 mm | - | 395 W/m² | - |
| 1777672552 | 18.89° C | 35% | 1017.7 hPa | 0 mm | - | 427 W/m² | - |
| 1777672248 | 18.89° C | 36% | 1017.6 hPa | 0 mm | - | 394 W/m² | - |
| 1777671943 | 18.33° C | 36% | 1017.8 hPa | 0 mm | - | 439 W/m² | - |
| 1777671639 | 17.78° C | 39% | 1017.8 hPa | 0 mm | - | 103 W/m² | - |
| 1777671336 | 17.78° C | 35% | 1017.9 hPa | 0 mm | - | 90 W/m² | - |
| 1777671032 | 17.78° C | 35% | 1018.2 hPa | 0 mm | - | 455 W/m² | - |
| 1777670729 | 17.78° C | 36% | 1018.1 hPa | 0 mm | - | 112 W/m² | - |
| 1777670426 | 18.33° C | 34% | 1018.3 hPa | 0 mm | - | 104 W/m² | - |
| 1777670122 | 19.44° C | 36% | 1018.4 hPa | 0 mm | - | 524 W/m² | - |
| 1777669821 | 20° C | 35% | 1018.6 hPa | 0 mm | - | 529 W/m² | - |
| 1777669516 | 19.44° C | 32% | 1018.7 hPa | 0 mm | - | 582 W/m² | - |
| 1777669213 | 20° C | 35% | 1019 hPa | 0 mm | - | 615 W/m² | - |
| 1777668910 | 20° C | 35% | 1018.9 hPa | 0 mm | - | 592 W/m² | - |
| 1777668608 | 19.44° C | 35% | 1018.9 hPa | 0 mm | - | 647 W/m² | - |
| 1777668303 | 20° C | 37% | 1019.3 hPa | 0 mm | - | 675 W/m² | - |
| 1777668000 | 18.89° C | 37% | 1019.3 hPa | 0 mm | - | 677 W/m² | - |
| 1777667696 | 18.89° C | 36% | 1019.5 hPa | 0 mm | - | 557 W/m² | - |
| 1777667394 | 18.89° C | 36% | 1019.3 hPa | 0 mm | - | 622 W/m² | - |
| 1777667090 | 18.33° C | 34% | 1019.4 hPa | 0 mm | - | 637 W/m² | - |
| 1777666787 | 18.33° C | 35% | 1019.4 hPa | 0 mm | - | 435 W/m² | - |
| 1777666484 | 17.78° C | 37% | 1019.6 hPa | 0 mm | - | 665 W/m² | - |
| 1777666181 | 19.44° C | 31% | 1019.7 hPa | 0 mm | - | 93 W/m² | - |
| 1777665878 | 18.89° C | 32% | 1019.7 hPa | 0 mm | - | 685 W/m² | - |
* Rain latest hour (hover to see other rain measurements)
** Current wind speed in m/s (hover to see current wind gust speed)